GW5357 Weather Reports


Display with metric or nautical units.
time (UTC)temp
F
wind
direction
speed
MPH
gust
MPH
rain 1hr
in
rain 24hr
in
rain mn
in
humidity
%
barometer
mb
20260831114004 50 331 1.0 3.0 0.00 0.00 0.00 93 1015.3
20260831113502 50 340 2.0 3.0 0.00 0.00 0.00 92 1015.4
20260831113004 50 336 1.0 2.0 0.00 0.00 0.00 92 1015.4
20260831112003 50 331 0.0 1.0 0.00 0.00 0.00 91 1015.5
20260831111003 50 296 0.0 2.0 0.00 0.00 0.00 91 1015.6
20260831110503 50 314 1.0 2.0 0.00 0.00 0.00 91 1015.5
20260831110004 50 321 1.0 2.0 0.00 0.00 0.00 91 1015.6
20260831105503 50 335 1.0 2.0 0.00 0.00 0.00 91 1015.7
20260831105004 50 135 0.0 2.0 0.00 0.00 0.00 91 1015.7
20260831104003 51 314 1.0 2.0 0.00 0.00 0.00 91 1015.6
20260831103503 51 321 1.0 2.0 0.00 0.00 0.00 91 1015.7
20260831103004 51 324 2.0 2.0 0.00 0.00 0.00 91 1015.8
20260831102003 51 336 1.0 3.0 0.00 0.00 0.00 91 1015.8
20260831101503 51 336 1.0 2.0 0.00 0.00 0.00 91 1015.9
20260831100007 51 336 1.0 2.0 0.00 0.00 0.00 91 1016.0
20260831095503 51 331 1.0 2.0 0.00 0.00 0.00 91 1016.0
20260831095003 51 331 1.0 2.0 0.00 0.00 0.00 91 1016.1
20260831094504 51 1 0.0 1.0 0.00 0.00 0.00 90 1016.2
20260831094005 51 1 1.0 1.0 0.00 0.00 0.00 91 1016.1
20260831093501 51 340 1.0 1.0 0.00 0.00 0.00 90 1016.2
20260831093004 52 46 0.0 2.0 0.00 0.00 0.00 90 1016.3
20260831092504 52 331 1.0 2.0 0.00 0.00 0.00 91 1016.4
20260831092004 52 314 1.0 2.0 0.00 0.00 0.00 91 1016.5
20260831091505 52 331 1.0 2.0 0.00 0.00 0.00 91 1016.7
20260831091004 52 344 1.0 2.0 0.00 0.00 0.00 91 1016.7
20260831090006 52 314 1.0 2.0 0.00 0.00 0.00 91 1016.8
20260831085503 52 340 1.0 2.0 0.00 0.00 0.00 91 1016.8
20260831084003 51 331 1.0 2.0 0.00 0.00 0.00 91 1016.9
20260831083503 51 331 1.0 1.0 0.00 0.00 0.00 91 1016.9
20260831083004 51 269 0.0 1.0 0.00 0.00 0.00 90 1016.9
20260831082003 52 314 1.0 2.0 0.00 0.00 0.00 90 1017.0
20260831081004 52 314 0.0 1.0 0.00 0.00 0.00 90 1017.1
20260831075000 53 269 0.0 2.0 0.00 0.00 0.00 89 1017.1
20260831074504 53 46 0.0 2.0 0.00 0.00 0.00 89 1017.3
20260831073501 53 331 1.0 2.0 0.00 0.00 0.00 90 1017.4
20260831073000 53 327 1.0 2.0 0.00 0.00 0.00 89 1017.6
20260831072459 53 269 1.0 2.0 0.00 0.00 0.00 89 1017.6
20260831072000 53 347 1.0 2.0 0.00 0.00 0.00 89 1017.6
20260831071500 53 314 1.0 2.0 0.00 0.00 0.00 89 1017.5
20260831071000 53 223 0.0 2.0 0.00 0.00 0.00 88 1017.5
20260831070459 53 340 1.0 2.0 0.00 0.00 0.00 88 1017.5
20260831070012 53 340 1.0 2.0 0.00 0.00 0.00 88 1017.5
20260831065503 53 321 1.0 2.0 0.00 0.00 0.00 88 1017.5
20260831065005 53 314 1.0 2.0 0.00 0.00 0.00 87 1017.5
20260831064504 54 331 0.0 2.0 0.00 0.00 0.00 87 1017.5
20260831064006 54 269 1.0 2.0 0.00 0.00 0.00 87 1017.6
20260831063504 54 340 2.0 2.0 0.00 0.00 0.00 87 1017.6
20260831063007 54 314 1.0 2.0 0.00 0.00 0.00 87 1017.7
20260831062503 54 331 1.0 2.0 0.00 0.00 0.00 87 1017.7
20260831062005 54 324 1.0 2.0 0.00 0.00 0.00 87 1017.7
20260831061504 54 344 1.0 2.0 0.00 0.00 0.00 87 1017.8
20260831060504 55 324 1.0 2.0 0.00 0.00 0.00 86 1018.0
20260831060007 55 1 1.0 2.0 0.00 0.00 0.00 86 1017.9
20260831055504 55 1 0.0 2.0 0.00 0.00 0.00 86 1018.0
20260831055004 55 46 1.0 2.0 0.00 0.00 0.00 86 1017.9
20260831054505 55 324 1.0 2.0 0.00 0.00 0.00 85 1018.0
20260831054006 55 324 1.0 2.0 0.00 0.00 0.00 85 1018.0
20260831053504 55 324 0.0 2.0 0.00 0.00 0.00 85 1018.1
20260831053004 56 340 1.0 2.0 0.00 0.00 0.00 85 1018.1
20260831052005 56 324 1.0 2.0 0.00 0.00 0.00 84 1018.2
20260831051504 56 331 1.0 2.0 0.00 0.00 0.00 84 1018.1
20260831050504 57 1 1.0 2.0 0.00 0.00 0.00 84 1018.2
20260831050006 57 331 1.0 2.0 0.00 0.00 0.00 84 1018.3
20260831045504 57 314 1.0 2.0 0.00 0.00 0.00 84 1018.3
20260831045005 57 324 2.0 2.0 0.00 0.00 0.00 83 1018.3
20260831044504 57 336 1.0 2.0 0.00 0.00 0.00 83 1018.3
20260831044004 57 336 1.0 2.0 0.00 0.00 0.00 83 1018.4
20260831043005 58 331 1.0 2.0 0.00 0.00 0.00 81 1018.5
20260831042504 58 314 1.0 2.0 0.00 0.00 0.00 80 1018.5
20260831042004 58 314 1.0 2.0 0.00 0.00 0.00 80 1018.5
20260831041505 58 1 1.0 2.0 0.00 0.00 0.00 80 1018.6
20260831041004 59 331 1.0 2.0 0.00 0.00 0.00 79 1018.6
20260831040504 59 340 1.0 2.0 0.00 0.00 0.00 79 1018.5
20260831040007 59 331 1.0 2.0 0.00 0.00 0.00 78 1018.6
20260831035505 60 331 1.0 2.0 0.00 0.00 0.00 78 1018.6
20260831035005 60 340 1.0 2.0 0.00 0.00 0.00 77 1018.6
20260831034504 60 324 1.0 2.0 0.00 0.00 0.00 76 1018.4
20260831034005 60 324 1.0 2.0 0.00 0.00 0.00 75 1018.4
20260831033503 61 321 1.0 2.0 0.00 0.00 0.00 75 1018.4
20260831033004 61 327 1.0 2.0 0.00 0.00 0.00 74 1018.4
20260831032505 61 331 1.0 2.0 0.00 0.00 0.00 73 1018.4
20260831032004 62 314 1.0 1.0 0.00 0.00 0.00 73 1018.4
20260831031503 62 1 1.0 2.0 0.00 0.00 0.00 72 1018.4
20260831031004 62 1 1.0 2.0 0.00 0.00 0.00 71 1018.4
20260831030504 63 331 1.0 1.0 0.00 0.00 0.00 70 1018.3
20260831030006 63 28 0.0 1.0 0.00 0.00 0.00 69 1018.4
20260831025505 63 46 0.0 2.0 0.00 0.00 0.00 68 1018.4
20260831025004 63 89 0.0 2.0 0.00 0.00 0.00 67 1018.5
20260831024504 64 46 0.0 2.0 0.00 0.00 0.00 67 1018.5
20260831024004 64 193 1.0 2.0 0.00 0.00 0.00 67 1018.5
20260831023504 64 314 0.0 3.0 0.00 0.00 0.00 67 1018.5
20260831023007 64 145 1.0 3.0 0.00 0.00 0.00 67 1018.4
20260831022505 64 124 1.0 3.0 0.00 0.00 0.00 67 1018.5
20260831022005 64 314 1.0 3.0 0.00 0.00 0.00 67 1018.6
20260831021506 64 241 1.0 3.0 0.00 0.00 0.00 67 1018.6
20260831020504 64 223 2.0 3.0 0.00 0.00 0.00 66 1018.6
20260831015504 64 286 1.0 3.0 0.00 0.00 0.00 65 1018.7
20260831014504 65 117 2.0 4.0 0.00 0.00 0.00 64 1018.8
20260831014003 65 324 1.0 4.0 0.00 0.00 0.00 64 1018.8
20260831013504 65 206 2.0 4.0 0.00 0.00 0.00 64 1018.9
20260831013004 65 314 2.0 3.0 0.00 0.00 0.00 64 1018.9
20260831012504 65 296 1.0 3.0 0.00 0.00 0.00 64 1018.9
20260831012004 65 46 1.0 4.0 0.00 0.00 0.00 65 1018.9
20260831011504 65 152 2.0 5.0 0.00 0.00 0.00 64 1018.9
20260831011003 65 314 1.0 5.0 0.00 0.00 0.00 65 1019.0
20260831010504 65 165 2.0 5.0 0.00 0.00 0.00 64 1019.0
20260831010007 65 168 1.0 4.0 0.00 0.00 0.00 65 1019.0
20260831005504 65 130 2.0 6.0 0.00 0.00 0.00 65 1019.0
20260831005004 65 178 3.0 6.0 0.00 0.00 0.00 65 1019.1
20260831004504 65 130 3.0 5.0 0.00 0.00 0.00 65 1019.1
20260831004003 65 163 2.0 5.0 0.00 0.00 0.00 65 1019.1
20260831003503 65 250 2.0 6.0 0.00 0.00 0.00 66 1019.2
20260831003004 65 283 2.0 6.0 0.00 0.00 0.00 66 1019.2
20260831002503 65 127 2.0 5.0 0.00 0.00 0.00 65 1019.3
20260831001503 65 314 2.0 6.0 0.00 0.00 0.00 66 1019.4
20260831001004 65 129 3.0 6.0 0.00 0.00 0.00 65 1019.4
20260831000503 65 107 2.0 8.0 0.00 0.00 0.00 65 1019.5
20260830235504 65 279 2.0 6.0 0.00 0.00 0.00 64 1019.5
20260830235003 65 283 2.0 6.0 0.00 0.00 0.00 64 1019.6
20260830234503 65 314 2.0 6.0 0.00 0.00 0.00 64 1019.6
20260830234004 65 46 2.0 6.0 0.00 0.00 0.00 63 1019.6
20260830233503 65 46 2.0 6.0 0.00 0.00 0.00 64 1019.5
20260830233004 65 178 2.0 5.0 0.00 0.00 0.00 64 1019.6
20260830232503 66 201 2.0 5.0 0.00 0.00 0.00 64 1019.7
20260830232003 65 219 1.0 5.0 0.00 0.00 0.00 64 1019.6
20260830231504 66 141 2.0 5.0 0.00 0.00 0.00 64 1019.7
20260830231004 66 184 2.0 5.0 0.00 0.00 0.00 63 1019.7
20260830230503 66 1 1.0 7.0 0.00 0.00 0.00 64 1019.7
20260830230005 66 247 2.0 7.0 0.00 0.00 0.00 63 1019.6
20260830225503 65 338 3.0 7.0 0.00 0.00 0.00 65 1019.7
20260830225004 65 156 3.0 7.0 0.00 0.00 0.00 64 1019.7
20260830224504 66 250 2.0 5.0 0.00 0.00 0.00 65 1019.7
20260830224004 65 314 3.0 6.0 0.00 0.00 0.00 65 1019.8
20260830223503 66 150 3.0 6.0 0.00 0.00 0.00 64 1019.8
20260830223004 66 276 2.0 7.0 0.00 0.00 0.00 64 1019.8
20260830222504 66 283 2.0 6.0 0.00 0.00 0.00 64 1019.9
20260830222004 66 195 3.0 6.0 0.00 0.00 0.00 64 1019.9
20260830221503 66 301 2.0 6.0 0.00 0.00 0.00 65 1019.9
20260830221004 66 306 2.0 7.0 0.00 0.00 0.00 66 1019.9
20260830220504 65 210 2.0 7.0 0.00 0.00 0.00 66 1020.1
20260830220004 66 135 3.0 6.0 0.00 0.00 0.00 65 1020.1
20260830215503 66 53 3.0 8.0 0.00 0.00 0.00 65 1020.1
20260830215004 66 321 2.0 8.0 0.00 0.00 0.00 64 1020.1
20260830214503 66 141 4.0 11.0 0.00 0.00 0.00 64 1020.0
20260830214004 66 248 4.0 11.0 0.00 0.00 0.00 65 1020.1
20260830213503 66 223 3.0 8.0 0.00 0.00 0.00 65 1020.1
20260830213004 65 276 2.0 10.0 0.00 0.00 0.00 66 1020.1
20260830212503 66 220 4.0 10.0 0.00 0.00 0.00 64 1020.1
20260830211503 66 40 3.0 11.0 0.00 0.00 0.00 64 1020.3
20260830211004 66 46 3.0 11.0 0.00 0.00 0.00 65 1020.4
20260830210503 66 145 3.0 10.0 0.00 0.00 0.00 67 1020.3
20260830210007 65 89 2.0 10.0 0.00 0.00 0.00 66 1020.2
20260830205504 66 32 3.0 9.0 0.00 0.00 0.00 65 1020.2
20260830205003 66 39 2.0 9.0 0.00 0.00 0.00 68 1020.2
20260830204504 65 300 4.0 9.0 0.00 0.00 0.00 67 1020.2
20260830204004 65 120 3.0 9.0 0.00 0.00 0.00 68 1020.1
20260830203004 64 168 2.0 11.0 0.00 0.00 0.00 69 1020.2
20260830202503 64 152 4.0 11.0 0.00 0.00 0.00 69 1020.3
20260830201505 64 150 2.0 7.0 0.00 0.00 0.00 69 1020.4
20260830201004 64 318 3.0 7.0 0.00 0.00 0.00 69 1020.5
20260830200503 64 125 3.0 7.0 0.00 0.00 0.00 68 1020.4
20260830200007 64 115 3.0 7.0 0.00 0.00 0.00 68 1020.4
20260830195503 65 300 2.0 8.0 0.00 0.00 0.00 68 1020.4
20260830195003 65 135 4.0 8.0 0.00 0.00 0.00 68 1020.4
20260830194004 64 321 2.0 10.0 0.00 0.00 0.00 69 1020.3
20260830193004 64 173 3.0 9.0 0.00 0.00 0.00 68 1020.3
20260830192504 64 150 3.0 9.0 0.00 0.00 0.00 69 1020.3
20260830192003 64 163 5.0 8.0 0.00 0.00 0.00 68 1020.3
20260830191504 64 223 3.0 9.0 0.00 0.00 0.00 68 1020.4
20260830190503 64 129 5.0 13.0 0.00 0.00 0.00 69 1020.4
20260830190004 64 178 5.0 11.0 0.00 0.00 0.00 69 1020.5
20260830185503 63 132 4.0 11.0 0.00 0.00 0.00 71 1020.5
20260830185004 63 161 5.0 11.0 0.00 0.00 0.00 71 1020.5
20260830184504 63 107 5.0 9.0 0.00 0.00 0.00 71 1020.5
20260830184004 63 135 4.0 8.0 0.00 0.00 0.00 70 1020.4
20260830183500 63 131 3.0 11.0 0.00 0.00 0.00 70 1020.6
20260830183003 63 115 5.0 11.0 0.00 0.00 0.00 70 1020.6
20260830182503 63 102 3.0 8.0 0.00 0.00 0.00 70 1020.5
20260830182004 63 135 3.0 11.0 0.00 0.00 0.00 71 1020.5
20260830181503 63 140 5.0 11.0 0.00 0.00 0.00 71 1020.5
20260830180504 62 163 5.0 11.0 0.00 0.00 0.00 72 1020.4
20260830180004 62 139 7.0 12.0 0.00 0.00 0.00 72 1020.4
20260830175502 62 154 4.0 12.0 0.00 0.00 0.00 73 1020.3
20260830175001 62 143 5.0 10.0 0.00 0.00 0.00 72 1020.4
20260830174003 61 135 3.0 12.0 0.00 0.00 0.00 74 1020.3
20260830173500 61 138 5.0 12.0 0.00 0.00 0.00 74 1020.3
20260830173004 61 137 5.0 13.0 0.00 0.00 0.00 73 1020.3
20260830171503 62 196 4.0 9.0 0.00 0.00 0.00 72 1020.3
20260830171004 62 135 4.0 9.0 0.00 0.00 0.00 73 1020.4
20260830170502 61 122 5.0 11.0 0.00 0.00 0.00 75 1020.4
20260830170003 60 103 6.0 11.0 0.00 0.00 0.00 75 1020.3
20260830165500 60 108 5.0 11.0 0.00 0.00 0.00 75 1020.4
20260830165002 60 130 4.0 11.0 0.00 0.00 0.00 75 1020.3
20260830164503 60 124 5.0 9.0 0.00 0.00 0.00 75 1020.3
20260830164004 61 163 3.0 12.0 0.00 0.00 0.00 76 1020.3
20260830163504 60 237 5.0 12.0 0.00 0.00 0.00 75 1020.3
20260830163004 60 136 4.0 9.0 0.00 0.00 0.00 76 1020.3
20260830162500 59 145 3.0 9.0 0.00 0.00 0.00 77 1020.4
20260830162004 59 138 5.0 9.0 0.00 0.00 0.00 78 1020.4
20260830161504 59 132 4.0 11.0 0.00 0.00 0.00 77 1020.4
20260830161004 59 152 6.0 11.0 0.00 0.00 0.00 77 1020.4
20260830160004 59 168 4.0 8.0 0.00 0.00 0.00 77 1020.3
20260830155500 59 139 4.0 10.0 0.00 0.00 0.00 77 1020.2
20260830155003 59 115 4.0 10.0 0.00 0.00 0.00 77 1020.2
20260830154504 59 223 3.0 8.0 0.00 0.00 0.00 77 1020.2
20260830154004 59 125 4.0 9.0 0.00 0.00 0.00 77 1020.1
20260830153503 59 119 5.0 9.0 0.00 0.00 0.00 77 1020.1
20260830153003 59 166 3.0 11.0 0.00 0.00 0.00 78 1020.2
20260830152501 59 128 3.0 10.0 0.00 0.00 0.00 79 1020.1
20260830152002 59 135 5.0 10.0 0.00 0.00 0.00 79 1020.0
20260830151504 59 113 3.0 7.0 0.00 0.00 0.00 80 1020.1
20260830151004 58 113 2.0 11.0 0.00 0.00 0.00 81 1020.1
20260830150501 58 137 4.0 11.0 0.00 0.00 0.00 81 1020.1
20260830150006 58 127 4.0 9.0 0.00 0.00 0.00 80 1020.1
20260830145500 58 178 3.0 9.0 0.00 0.00 0.00 80 1020.1
20260830145003 58 148 3.0 7.0 0.00 0.00 0.00 80 1020.0
20260830144004 58 127 3.0 10.0 0.00 0.00 0.00 79 1019.9
20260830143503 58 130 5.0 8.0 0.00 0.00 0.00 79 1019.9
20260830143004 58 158 4.0 7.0 0.00 0.00 0.00 79 1019.9
20260830142503 58 124 4.0 7.0 0.00 0.00 0.00 79 1019.9
20260830142003 58 115 2.0 6.0 0.00 0.00 0.00 79 1019.8
20260830141504 58 141 3.0 5.0 0.00 0.00 0.00 79 1019.8
20260830141004 58 149 3.0 6.0 0.00 0.00 0.00 79 1019.7
20260830140502 58 151 3.0 7.0 0.00 0.00 0.00 79 1019.6
20260830140008 57 161 4.0 7.0 0.00 0.00 0.00 79 1019.5
20260830135003 57 100 2.0 5.0 0.00 0.00 0.00 79 1019.5
20260830134503 57 161 2.0 5.0 0.00 0.00 0.00 79 1019.5
20260830134003 57 129 2.0 4.0 0.00 0.00 0.00 80 1019.4
20260830133501 57 139 3.0 4.0 0.00 0.00 0.00 80 1019.4
20260830133004 57 123 2.0 4.0 0.00 0.00 0.00 80 1019.4
20260830132003 56 135 3.0 6.0 0.00 0.00 0.00 80 1019.4
20260830131504 56 150 2.0 6.0 0.00 0.00 0.00 80 1019.4
20260830131004 56 128 3.0 6.0 0.00 0.00 0.00 82 1019.4
20260830130500 55 132 3.0 6.0 0.00 0.00 0.00 83 1019.4
20260830130003 53 157 2.0 4.0 0.00 0.02 0.00 85 1019.4
20260830125000 53 331 0.0 2.0 0.00 0.02 0.00 85 1019.4
20260830124503 53 223 1.0 2.0 0.00 0.02 0.00 85 1019.4
20260830124000 53 324 1.0 2.0 0.00 0.02 0.00 84 1019.4
20260830123500 53 135 0.0 2.0 0.00 0.02 0.00 84 1019.4
20260830123004 54 314 0.0 1.0 0.00 0.02 0.00 83 1019.4
20260830122500 54 178 0.0 2.0 0.00 0.02 0.00 83 1019.4
20260830122000 54 72 1.0 2.0 0.00 0.02 0.00 82 1019.4
20260830121504 54 135 1.0 2.0 0.00 0.02 0.00 82 1019.4
20260830121000 55 178 0.0 2.0 0.00 0.02 0.00 81 1019.5
20260830120500 55 152 0.0 2.0 0.00 0.02 0.00 81 1019.5
20260830120007 55 161 1.0 2.0 0.00 0.02 0.00 80 1019.5
20260830115501 55 135 0.0 2.0 0.00 0.07 0.00 80 1019.5
20260830115004 55 124 1.0 3.0 0.00 0.07 0.00 79 1019.6
20260830114504 55 135 2.0 3.0 0.00 0.07 0.00 80 1019.6